Location: Navarre
(52.9016°N, 113.4144°W)
Time: 13:22:59
(UTC+00:00)

Envisat - Pass Details

Date: 08 December 2021
Orbit: 764 x 766 km, 98.2° (Epoch: 28 January)

Event Time Altitude Azimuth Distance (km) Brightness Sun altitude
Rises 11:22:24 0° 25° (NNE) 3,247 6.7 -36.4°
Reaches altitude 10° 11:25:23 10° 43° (NE) 2,315 6.0 -36.0°
Maximum altitude 11:28:59 19° 88° (E) 1,759 5.5 -35.4°
Drops below altitude 10° 11:32:35 10° 133° (SE) 2,302 5.8 -34.9°
Sets 11:35:31 0° 151° (SSE) 3,222 6.5 -34.5°
